Location: Newark
(35.9031°N, 139.7175°E)
Time: 00:44:49
(UTC+00:00)

Hubble Space Telescope - Visible Passes

Search period start: 02 April 2020 00:00
Search period end: 12 April 2020 00:00
Orbit: 536 x 540 km, 28.5° (Epoch: 01 April)

Date Brightness Start Highest point End Pass type
(mag) Time Alt. Az. Time Alt. Az. Time Alt. Az.
05 Apr 3.0 10:06:41 10° SSE 10:07:24 10° SSE 10:07:38 10° SSE visible
06 Apr 2.8 09:54:46 10° S 09:56:38 13° SSE 09:58:01 11° SE visible
07 Apr 2.7 09:43:26 10° SSW 09:45:52 15° SSE 09:48:17 10° SE visible
07 Apr 3.3 11:23:00 10° SW 11:23:39 13° SW 11:23:39 13° SW visible
08 Apr 2.5 09:32:19 10° SSW 09:35:07 18° SSE 09:37:55 10° ESE visible
08 Apr 2.8 11:12:14 10° WSW 11:13:50 19° SW 11:13:50 19° SW visible
09 Apr 2.3 11:01:29 10° WSW 11:03:57 25° SSW 11:03:57 25° SSW visible
10 Apr 2.0 10:50:46 10° WSW 10:54:00 28° S 10:54:00 28° S visible
11 Apr 1.9 10:40:05 10° WSW 10:43:37 28° S 10:44:00 27° S visible
